Погода в Шуманае

Узбекистан     42°38′07″N   58°55′27″E
темп.,
°C
ветер,
м/с
пор.,
м/с
влажн.,
%
обл.,
%
осадки,
мм/ч
давл.,
гПа
погр.,
м
1 марта, пн
пн123:00+7ююв44340 0.0 101645
02:00+5ююв34378 0.0 101526
05:00+3ююз234318 0.0 101622
08:00+3ссз234395 0.0 101622
11:00+9ссв342970 0.0 1018431
14:00+12с44380 0.0 10181073
17:00+11с66480 0.0 10181111
20:00+6с587111 0.0 1021399
2 марта, вт
вт223:00+4с467422 0.0 1023230
02:00+3ссз358243 0.0 1024106
05:00+2ссз359049 0.0 1025184
08:00+1ссз347949 0.0 102778
11:00+4ссз335635 0.0 1028612
14:00+7сз334395 0.0 10271042
17:00+7сз333797 0.0 10261191
20:00+5сз334491 0.0 102657
3 марта, ср
ср323:00+3ссв235456 0.0 102732
02:00+1вюв237011 0.0 102623
05:00+1ююв23686 0.0 102422
08:00+1ю23620 0.0 102322
11:00+7ю34430 0.0 1023647
14:00+10ююз45370 0.0 10211511
17:00+12юз56375 0.0 10181779
20:00+9юз355492 0.0 1017209
4 марта, чт
чт423:00+9юв456190 0.0 1017140
02:00+8ю4863100 0.1 1015540
05:00+8ю595797 0.2 1015307
08:00+6сз7108485 0.6 1016539
11:00+8сз9105158 0.6 1018912
14:00+9зсз911410 0.0 10201495
17:00+8зсз910364 0.0 10211574
20:00+4сз68440 0.0 1024895
5 марта, пт
пт523:00+2ссз47550 0.0 1028330
02:000ссз34650 0.0 102894
05:00−2с12730 0.0 102921
08:00−2в22720 0.0 102929
11:00+2юв34460 0.0 1029686
14:00+7юв34322 0.0 10271230
17:00+9в442615 0.0 10251394
20:00+6в573798 0.0 1024295